TimeEST,TemperatureF,Dew PointF,Humidity,Sea Level PressureIn,VisibilityMPH,Wind Direction,Wind SpeedMPH,Gust SpeedMPH,PrecipitationIn,Events,Conditions,WindDirDegrees,DateUTC
12:53 AM,70.0,62.1,76,30.17,10.0,North,10.4,-,N/A,,Clear,10,2013-11-30 05:53:00
1:53 AM,70.0,62.1,76,30.16,10.0,North,10.4,-,N/A,,Mostly Cloudy,10,2013-11-30 06:53:00
2:53 AM,69.1,63.0,81,30.14,10.0,NNE,11.5,-,N/A,,Mostly Cloudy,20,2013-11-30 07:53:00
3:53 AM,68.0,63.0,84,30.14,10.0,NNE,11.5,-,N/A,,Overcast,20,2013-11-30 08:53:00
4:53 AM,66.9,63.0,87,30.14,10.0,North,12.7,-,N/A,,Clear,10,2013-11-30 09:53:00
5:53 AM,66.9,63.0,87,30.14,10.0,NNE,12.7,20.7,N/A,,Clear,30,2013-11-30 10:53:00
6:53 AM,66.9,63.0,87,30.15,10.0,NNE,12.7,-,N/A,,Clear,30,2013-11-30 11:53:00
7:53 AM,68.0,63.0,84,30.16,10.0,NNE,9.2,-,N/A,,Clear,20,2013-11-30 12:53:00
8:53 AM,70.0,64.0,81,30.18,10.0,NNE,10.4,-,N/A,,Clear,20,2013-11-30 13:53:00
9:53 AM,71.1,64.0,78,30.19,10.0,North,11.5,-,N/A,,Clear,10,2013-11-30 14:53:00
10:53 AM,73.0,64.9,76,30.18,10.0,NNE,9.2,-,N/A,,Clear,20,2013-11-30 15:53:00
11:53 AM,75.0,66.0,73,30.15,10.0,North,9.2,-,N/A,,Clear,10,2013-11-30 16:53:00
12:53 PM,75.9,66.9,74,30.13,10.0,North,8.1,-,N/A,,Clear,10,2013-11-30 17:53:00
1:53 PM,75.9,68.0,76,30.10,10.0,North,9.2,-,N/A,,Clear,360,2013-11-30 18:53:00
2:53 PM,75.9,68.0,76,30.10,10.0,North,8.1,-,N/A,,Clear,350,2013-11-30 19:53:00
3:53 PM,75.9,68.0,76,30.09,10.0,North,6.9,-,N/A,,Clear,360,2013-11-30 20:53:00
4:53 PM,75.0,69.1,82,30.09,10.0,NNE,6.9,-,N/A,,Mostly Cloudy,30,2013-11-30 21:53:00
5:53 PM,73.0,68.0,84,30.09,10.0,NNE,9.2,-,N/A,,Mostly Cloudy,20,2013-11-30 22:53:00
6:53 PM,71.1,66.9,87,30.10,10.0,NE,13.8,-,N/A,,Mostly Cloudy,40,2013-11-30 23:53:00
7:53 PM,72.0,66.9,84,30.11,10.0,NNE,12.7,-,N/A,,Mostly Cloudy,30,2013-12-01 00:53:00
8:53 PM,71.1,66.9,87,30.12,10.0,NNE,13.8,24.2,N/A,,Partly Cloudy,30,2013-12-01 01:53:00
9:53 PM,72.0,66.0,81,30.11,10.0,NNE,10.4,-,N/A,,Partly Cloudy,20,2013-12-01 02:53:00
10:53 PM,72.0,66.0,81,30.11,10.0,NNE,8.1,-,N/A,,Clear,20,2013-12-01 03:53:00
11:53 PM,71.1,66.9,87,30.09,10.0,NNE,11.5,-,N/A,,Clear,30,2013-12-01 04:53:00